Location: Unspecified
(0.0000°N, 0.0000°E)
Time: 09:11:20
(UTC+00:00)

Vanguard 2 Rocket - Pass Details

Date: 16 December 2018
Orbit: 554 x 3327 km, 32.9° (Epoch: 18 January)

Event Time Altitude Azimuth Distance (km) Brightness Sun altitude
Rises 21:45:31 0° 224° (SW) 7,258 12.1 -50.7°
Reaches altitude 10° 21:52:38 10° 211° (SSW) 6,005 11.5 -52.1°
Maximum altitude 22:05:16 23° 166° (SSE) 4,224 10.3 -54.4°
Enters shadow 22:08:23 21° 149° (SSE) 4,066 10.1 -55.0°
Drops below altitude 10° 22:14:29 10° 119° (ESE) 4,328 - -56.1°
Sets 22:18:23 0° 104° (ESE) 4,888 - -56.8°
